| time (UTC) | temp C | wind direction | speed KPH | gust KPH | rain 1hr cm | rain 24hr cm | rain mn cm | humidity % | barometer mb |
| 20260504202703 | 24 | 282 | 3.2 | 12.9 | 0.00 | 0.00 | 0.00 | 37 | 1018.0 |
| 20260504201803 | 23 | 257 | 3.2 | 12.9 | 0.00 | 0.00 | 0.00 | 36 | 1018.1 |
| 20260504200903 | 22 | 278 | 3.2 | 11.3 | 0.00 | 0.00 | 0.00 | 38 | 1018.1 |
| 20260504200003 | 23 | 347 | 3.2 | 11.3 | 0.00 | 0.00 | 0.00 | 37 | 1018.3 |
| 20260504195404 | 23 | 16 | 3.2 | 9.7 | 0.00 | 0.00 | 0.00 | 37 | 1018.2 |
| 20260504194503 | 23 | 149 | 3.2 | 11.3 | 0.00 | 0.00 | 0.00 | 36 | 1018.4 |
| 20260504193603 | 22 | 128 | 3.2 | 9.7 | 0.00 | 0.00 | 0.00 | 38 | 1018.4 |
| 20260504192703 | 22 | 180 | 3.2 | 14.5 | 0.00 | 0.00 | 0.00 | 37 | 1018.7 |
| 20260504191803 | 22 | 179 | 3.2 | 11.3 | 0.00 | 0.00 | 0.00 | 42 | 1018.9 |
| 20260504190924 | 22 | 359 | 3.2 | 9.7 | 0.00 | 0.00 | 0.00 | 36 | 1018.7 |
| 20260504190003 | 23 | 275 | 3.2 | 9.7 | 0.00 | 0.00 | 0.00 | 39 | 1018.9 |
| 20260504185403 | 23 | 169 | 3.2 | 9.7 | 0.00 | 0.00 | 0.00 | 40 | 1019.1 |
| 20260504184503 | 22 | 210 | 3.2 | 14.5 | 0.00 | 0.00 | 0.00 | 36 | 1018.9 |
| 20260504183603 | 22 | 285 | 3.2 | 12.9 | 0.00 | 0.00 | 0.00 | 38 | 1019.1 |
| 20260504182703 | 22 | 209 | 3.2 | 11.3 | 0.00 | 0.00 | 0.00 | 37 | 1019.1 |
| 20260504181803 | 22 | 223 | 3.2 | 12.9 | 0.00 | 0.00 | 0.00 | 38 | 1018.9 |
| 20260504180903 | 22 | 247 | 3.2 | 12.9 | 0.00 | 0.00 | 0.00 | 40 | 1019.0 |
| 20260504180003 | 21 | 244 | 3.2 | 9.7 | 0.00 | 0.00 | 0.00 | 38 | 1019.2 |
| 20260504175424 | 21 | 12 | 3.2 | 9.7 | 0.00 | 0.00 | 0.00 | 38 | 1019.2 |
| 20260504174503 | 21 | 357 | 1.6 | 9.7 | 0.00 | 0.00 | 0.00 | 40 | 1019.4 |
| 20260504173603 | 21 | 17 | 1.6 | 9.7 | 0.00 | 0.00 | 0.00 | 39 | 1019.4 |
| 20260504172703 | 21 | 116 | 3.2 | 6.4 | 0.00 | 0.00 | 0.00 | 35 | 1019.4 |
| 20260504171803 | 21 | 171 | 3.2 | 14.5 | 0.00 | 0.00 | 0.00 | 37 | 1019.3 |
| 20260504170903 | 20 | 227 | 3.2 | 9.7 | 0.00 | 0.00 | 0.00 | 38 | 1019.4 |
| 20260504150903 | 13 | 27 | 4.8 | 16.1 | 0.00 | 0.00 | 0.00 | 51 | 1021.2 |
| 20260504140903 | 12 | 154 | 3.2 | 16.1 | 0.00 | 0.00 | 0.00 | 57 | 1020.6 |
| 20260504081803 | 3 | 42 | 1.6 | 4.8 | 0.00 | 0.00 | 0.00 | 79 | 1019.0 |
| 20260504080903 | 3 | 36 | 1.6 | 3.2 | 0.00 | 0.00 | 0.00 | 78 | 1019.0 |
| 20260504050003 | 3 | 49 | 0.0 | 1.6 | 0.00 | 0.00 | 0.00 | 76 | 1020.0 |
| 20260504045424 | 3 | 43 | 0.0 | 3.2 | 0.00 | 0.00 | 0.00 | 76 | 1020.2 |
| 20260504044524 | 3 | 62 | 0.0 | 1.6 | 0.00 | 0.00 | 0.00 | 76 | 1020.0 |
| 20260504043603 | 3 | 26 | 0.0 | 1.6 | 0.00 | 0.00 | 0.00 | 75 | 1020.0 |
| 20260504042724 | 3 | 52 | 0.0 | 1.6 | 0.00 | 0.00 | 0.00 | 74 | 1019.8 |
| 20260504041803 | 3 | 82 | 0.0 | 1.6 | 0.00 | 0.00 | 0.00 | 72 | 1019.8 |
| 20260504040903 | 3 | 57 | 0.0 | 1.6 | 0.00 | 0.00 | 0.00 | 72 | 1020.0 |
| 20260504040004 | 3 | 37 | 0.0 | 1.6 | 0.00 | 0.00 | 0.00 | 70 | 1020.0 |
| 20260504035403 | 3 | 45 | 0.0 | 1.6 | 0.00 | 0.00 | 0.00 | 71 | 1019.8 |
| 20260504034503 | 4 | 18 | 0.0 | 1.6 | 0.00 | 0.00 | 0.00 | 69 | 1019.8 |
| 20260504033603 | 4 | 40 | 0.0 | 1.6 | 0.00 | 0.00 | 0.00 | 69 | 1019.8 |
| 20260504032703 | 4 | 62 | 0.0 | 1.6 | 0.00 | 0.00 | 0.00 | 70 | 1019.6 |
| 20260504031803 | 5 | 54 | 0.0 | 1.6 | 0.00 | 0.00 | 0.00 | 69 | 1019.6 |
| 20260504030903 | 5 | 35 | 0.0 | 3.2 | 0.00 | 0.00 | 0.00 | 68 | 1019.5 |
| 20260504030003 | 5 | 36 | 0.0 | 1.6 | 0.00 | 0.00 | 0.00 | 67 | 1019.8 |
| 20260504025424 | 5 | 34 | 0.0 | 3.2 | 0.00 | 0.00 | 0.00 | 69 | 1019.8 |
| 20260504024503 | 5 | 26 | 3.2 | 6.4 | 0.00 | 0.00 | 0.00 | 67 | 1020.2 |
| 20260504023603 | 5 | 25 | 1.6 | 3.2 | 0.00 | 0.00 | 0.00 | 66 | 1020.0 |
| 20260504022724 | 5 | 25 | 0.0 | 1.6 | 0.00 | 0.00 | 0.00 | 66 | 1020.2 |
| 20260504021803 | 6 | 21 | 0.0 | 1.6 | 0.00 | 0.00 | 0.00 | 64 | 1020.0 |
| 20260504020924 | 6 | 34 | 0.0 | 3.2 | 0.00 | 0.00 | 0.00 | 64 | 1020.2 |
| 20260504020024 | 6 | 32 | 0.0 | 3.2 | 0.00 | 0.00 | 0.00 | 60 | 1020.0 |
| 20260504015403 | 6 | 56 | 0.0 | 1.6 | 0.00 | 0.00 | 0.00 | 60 | 1019.8 |
| 20260504014503 | 7 | 41 | 0.0 | 1.6 | 0.00 | 0.00 | 0.00 | 59 | 1019.5 |
| 20260504013603 | 7 | 15 | 0.0 | 3.2 | 0.00 | 0.00 | 0.00 | 57 | 1019.5 |
| 20260504012703 | 7 | 8 | 0.0 | 3.2 | 0.00 | 0.00 | 0.00 | 57 | 1019.5 |
| 20260504011803 | 8 | 33 | 0.0 | 9.7 | 0.00 | 0.00 | 0.00 | 55 | 1019.2 |
| 20260504010903 | 8 | 22 | 0.0 | 3.2 | 0.00 | 0.00 | 0.00 | 56 | 1019.4 |
| 20260504010003 | 8 | 25 | 0.0 | 3.2 | 0.00 | 0.00 | 0.00 | 54 | 1019.3 |
| 20260504005403 | 9 | 20 | 0.0 | 1.6 | 0.00 | 0.00 | 0.00 | 52 | 1019.3 |
| 20260504004524 | 10 | 0 | 0.0 | 0.0 | 0.00 | 0.00 | 0.00 | 48 | 1019.3 |
| 20260504003603 | 10 | 19 | 0.0 | 1.6 | 0.00 | 0.00 | 0.00 | 47 | 1019.0 |
| 20260504002703 | 11 | 19 | 0.0 | 1.6 | 0.00 | 0.00 | 0.00 | 46 | 1019.2 |
| 20260504001803 | 11 | 30 | 0.0 | 3.2 | 0.00 | 0.00 | 0.00 | 46 | 1019.2 |
| 20260504000903 | 11 | 26 | 1.6 | 4.8 | 0.00 | 0.00 | 0.00 | 43 | 1019.1 |
| 20260504000003 | 12 | 29 | 1.6 | 6.4 | 0.00 | 0.00 | 0.00 | 40 | 1019.1 |
| 20260503235403 | 12 | 30 | 0.0 | 3.2 | 0.00 | 0.00 | 0.00 | 40 | 1019.0 |
| 20260503234524 | 13 | 30 | 1.6 | 6.4 | 0.00 | 0.00 | 0.00 | 39 | 1019.1 |
| 20260503233603 | 13 | 14 | 1.6 | 4.8 | 0.00 | 0.00 | 0.00 | 37 | 1018.8 |
| 20260503232703 | 15 | 12 | 1.6 | 4.8 | 0.00 | 0.00 | 0.00 | 35 | 1018.8 |
| 20260503231803 | 15 | 23 | 1.6 | 6.4 | 0.00 | 0.00 | 0.00 | 34 | 1018.8 |
| 20260503230903 | 15 | 22 | 3.2 | 9.7 | 0.00 | 0.00 | 0.00 | 34 | 1018.9 |
| 20260503230003 | 16 | 29 | 1.6 | 11.3 | 0.00 | 0.00 | 0.00 | 34 | 1018.4 |
| 20260503225403 | 16 | 37 | 3.2 | 14.5 | 0.00 | 0.00 | 0.00 | 33 | 1018.7 |
| 20260503224524 | 17 | 353 | 1.6 | 9.7 | 0.00 | 0.00 | 0.00 | 32 | 1018.8 |
| 20260503223603 | 17 | 313 | 3.2 | 12.9 | 0.00 | 0.00 | 0.00 | 29 | 1018.4 |
| 20260503222703 | 18 | 305 | 3.2 | 9.7 | 0.00 | 0.00 | 0.00 | 29 | 1018.8 |
| 20260503221803 | 18 | 324 | 1.6 | 4.8 | 0.00 | 0.00 | 0.00 | 27 | 1018.7 |
| 20260503220903 | 18 | 255 | 1.6 | 6.4 | 0.00 | 0.00 | 0.00 | 27 | 1018.7 |
| 20260503220003 | 19 | 179 | 3.2 | 6.4 | 0.00 | 0.00 | 0.00 | 29 | 1018.8 |
| 20260503215403 | 19 | 141 | 1.6 | 6.4 | 0.00 | 0.00 | 0.00 | 29 | 1018.8 |
| 20260503214503 | 19 | 53 | 1.6 | 4.8 | 0.00 | 0.00 | 0.00 | 28 | 1018.7 |
| 20260503213603 | 18 | 339 | 3.2 | 11.3 | 0.00 | 0.00 | 0.00 | 30 | 1018.8 |
| 20260503212703 | 18 | 4 | 4.8 | 12.9 | 0.00 | 0.00 | 0.00 | 27 | 1018.9 |
| 20260503211824 | 18 | 11 | 3.2 | 11.3 | 0.00 | 0.00 | 0.00 | 31 | 1018.9 |
| 20260503210903 | 18 | 353 | 1.6 | 6.4 | 0.00 | 0.00 | 0.00 | 30 | 1018.9 |
| 20260503210003 | 18 | 24 | 3.2 | 14.5 | 0.00 | 0.00 | 0.00 | 29 | 1019.3 |
| 20260503205403 | 18 | 32 | 3.2 | 14.5 | 0.00 | 0.00 | 0.00 | 30 | 1019.2 |
| 20260503204503 | 18 | 10 | 3.2 | 9.7 | 0.00 | 0.00 | 0.00 | 29 | 1019.2 |
| 20260503203603 | 18 | 76 | 3.2 | 9.7 | 0.00 | 0.00 | 0.00 | 30 | 1019.3 |